Time,TemperatureF,DewpointF,PressureIn,WindDirection,WindDirectionDegrees,WindSpeedMPH,WindSpeedGustMPH,Humidity,HourlyPrecipIn,Conditions,Clouds,dailyrainin,SoftwareType,DateUTC
2013-07-11 00:02:00,83.0,-99.9,-100.00,SSW,207,10.0,12.0,-999,-99.99,,,-99.99,,2013-07-11 07:02:00,
2013-07-11 00:45:00,82.0,-99.9,-100.00,SW,226,9.0,12.0,-999,-99.99,,,-99.99,,2013-07-11 07:45:00,
2013-07-11 00:54:00,82.0,-99.9,-100.00,South,191,10.0,11.0,-999,-99.99,,,-99.99,,2013-07-11 07:54:00,
2013-07-11 01:02:00,82.0,-99.9,-100.00,South,191,10.0,11.0,-999,-99.99,,,-99.99,,2013-07-11 08:02:00,
2013-07-11 01:34:00,81.0,-99.9,-100.00,SW,218,10.0,12.0,-999,-99.99,,,-99.99,,2013-07-11 08:34:00,
2013-07-11 01:43:00,81.0,-99.9,-100.00,SW,218,10.0,12.0,-999,-99.99,,,-99.99,,2013-07-11 08:43:00,
2013-07-11 03:02:00,80.0,-99.9,-100.00,SSW,207,5.0,8.0,-999,-99.99,,,-99.99,,2013-07-11 10:02:00,
2013-07-11 03:12:00,80.0,-99.9,-100.00,SSW,207,5.0,8.0,-999,-99.99,,,-99.99,,2013-07-11 10:12:00,
2013-07-11 04:43:00,80.0,-99.9,-100.00,SSW,201,0.0,10.0,-999,-99.99,,,-99.99,,2013-07-11 11:43:00,
2013-07-11 04:50:00,80.0,-99.9,-100.00,SSW,199,12.0,13.0,-999,-99.99,,,-99.99,,2013-07-11 11:50:00,
2013-07-11 04:53:00,80.0,-99.9,-100.00,SSW,201,0.0,10.0,-999,-99.99,,,-99.99,,2013-07-11 11:53:00,
2013-07-11 05:43:00,80.0,-99.9,-100.00,SSW,199,12.0,13.0,-999,-99.99,,,-99.99,,2013-07-11 12:43:00,
2013-07-11 07:50:00,80.0,-99.9,-100.00,SSE,164,12.0,12.0,-999,-99.99,,,-99.99,,2013-07-11 14:50:00,
2013-07-11 08:25:00,82.0,-99.9,-100.00,SSE,165,8.0,12.0,-999,-99.99,,,-99.99,,2013-07-11 15:25:00,
2013-07-11 08:49:00,80.0,-99.9,-100.00,SSE,164,12.0,12.0,-999,-99.99,,,-99.99,,2013-07-11 15:49:00,
2013-07-11 09:07:00,82.0,-99.9,-100.00,SSE,165,8.0,12.0,-999,-99.99,,,-99.99,,2013-07-11 16:07:00,
2013-07-11 09:15:00,82.0,-99.9,-100.00,SSE,165,8.0,12.0,-999,-99.99,,,-99.99,,2013-07-11 16:15:00,
2013-07-11 10:10:00,83.0,-99.9,-100.00,SSW,207,6.0,12.0,-999,-99.99,,,-99.99,,2013-07-11 17:10:00,
2013-07-11 10:17:00,83.0,-99.9,-100.00,SW,227,4.0,8.0,-999,-99.99,,,-99.99,,2013-07-11 17:17:00,
2013-07-11 10:45:00,85.0,-99.9,-100.00,SE,141,4.0,10.0,-999,-99.99,,,-99.99,,2013-07-11 17:45:00,
2013-07-11 10:51:00,84.0,-99.9,-100.00,South,190,7.0,14.0,-999,-99.99,,,-99.99,,2013-07-11 17:51:00,
2013-07-11 10:57:00,83.0,-99.9,-100.00,SSW,207,6.0,12.0,-999,-99.99,,,-99.99,,2013-07-11 17:57:00,
2013-07-11 11:07:00,83.0,-99.9,-100.00,SSW,207,6.0,12.0,-999,-99.99,,,-99.99,,2013-07-11 18:07:00,
2013-07-11 11:45:00,87.0,-99.9,-100.00,South,184,11.0,11.0,-999,-99.99,,,-99.99,,2013-07-11 18:45:00,
2013-07-11 11:57:00,86.0,-99.9,-100.00,South,169,8.0,14.0,-999,-99.99,,,-99.99,,2013-07-11 18:57:00,
2013-07-11 12:13:00,86.0,-99.9,-100.00,SSE,159,8.0,10.0,-999,-99.99,,,-99.99,,2013-07-11 19:13:00,
2013-07-11 12:25:00,87.0,-99.9,-100.00,SSW,210,3.0,10.0,-999,-99.99,,,-99.99,,2013-07-11 19:25:00,
2013-07-11 12:59:00,88.0,-99.9,-100.00,SW,228,6.0,6.0,-999,-99.99,,,-99.99,,2013-07-11 19:59:00,
2013-07-11 13:05:00,89.0,-99.9,-100.00,SW,229,10.0,12.0,-999,-99.99,,,-99.99,,2013-07-11 20:05:00,
2013-07-11 13:14:00,88.0,-99.9,-100.00,WSW,255,4.0,14.0,-999,-99.99,,,-99.99,,2013-07-11 20:14:00,
2013-07-11 13:51:00,89.0,-99.9,-100.00,SSW,198,5.0,11.0,-999,-99.99,,,-99.99,,2013-07-11 20:51:00,
2013-07-11 13:56:00,89.0,-99.9,-100.00,SW,229,10.0,12.0,-999,-99.99,,,-99.99,,2013-07-11 20:56:00,
2013-07-11 15:50:00,94.0,-99.9,-100.00,NE,48,0.0,9.0,-999,-99.99,,,-99.99,,2013-07-11 22:50:00,
2013-07-11 15:55:00,94.0,-99.9,-100.00,WNW,290,2.0,11.0,-999,-99.99,,,-99.99,,2013-07-11 22:55:00,
2013-07-11 16:20:00,89.0,-99.9,-100.00,NNW,332,14.0,16.0,-999,-99.99,,,-99.99,,2013-07-11 23:20:00,
2013-07-11 16:48:00,92.0,-99.9,-100.00,WNW,300,10.0,10.0,-999,-99.99,,,-99.99,,2013-07-11 23:48:00,
2013-07-11 17:06:00,89.0,-99.9,-100.00,NNW,332,14.0,16.0,-999,-99.99,,,-99.99,,2013-07-12 00:06:00,
2013-07-11 17:16:00,89.0,-99.9,-100.00,NNW,332,14.0,16.0,-999,-99.99,,,-99.99,,2013-07-12 00:16:00,
2013-07-11 17:40:00,87.0,-99.9,-100.00,NNW,336,14.0,14.0,-999,-99.99,,,-99.99,,2013-07-12 00:40:00,
2013-07-11 17:59:00,89.0,-99.9,-100.00,NNW,328,10.0,19.0,-999,-99.99,,,-99.99,,2013-07-12 00:59:00,
2013-07-11 18:06:00,89.0,-99.9,-100.00,NNW,328,10.0,19.0,-999,-99.99,,,-99.99,,2013-07-12 01:06:00,
2013-07-11 18:14:00,89.0,-99.9,-100.00,NNW,328,10.0,19.0,-999,-99.99,,,-99.99,,2013-07-12 01:14:00,
2013-07-11 18:28:00,87.0,-99.9,-100.00,NNW,336,14.0,14.0,-999,-99.99,,,-99.99,,2013-07-12 01:28:00,
2013-07-11 18:39:00,87.0,-99.9,-100.00,NNW,336,14.0,14.0,-999,-99.99,,,-99.99,,2013-07-12 01:39:00,
2013-07-11 19:57:00,88.0,-99.9,-100.00,NNW,346,6.0,11.0,-999,-99.99,,,-99.99,,2013-07-12 02:57:00,
2013-07-11 20:04:00,88.0,-99.9,-100.00,NNW,346,6.0,11.0,-999,-99.99,,,-99.99,,2013-07-12 03:04:00,
2013-07-11 20:47:00,87.0,-99.9,-100.00,North,359,6.0,9.0,-999,-99.99,,,-99.99,,2013-07-12 03:47:00,
2013-07-11 20:58:00,87.0,-99.9,-100.00,North,1,3.0,9.0,-999,-99.99,,,-99.99,,2013-07-12 03:58:00,
2013-07-11 21:11:00,87.0,-99.9,-100.00,NNW,335,4.0,8.0,-999,-99.99,,,-99.99,,2013-07-12 04:11:00,
2013-07-11 21:22:00,87.0,-99.9,-100.00,NW,323,0.0,6.0,-999,-99.99,,,-99.99,,2013-07-12 04:22:00,
2013-07-11 21:32:00,87.0,-99.9,-100.00,NW,323,0.0,6.0,-999,-99.99,,,-99.99,,2013-07-12 04:32:00,
2013-07-11 22:12:00,87.0,-99.9,-100.00,SSW,199,3.0,7.0,-999,-99.99,,,-99.99,,2013-07-12 05:12:00,
2013-07-11 22:22:00,87.0,-99.9,-100.00,SSW,199,3.0,7.0,-999,-99.99,,,-99.99,,2013-07-12 05:22:00,
2013-07-11 22:43:00,87.0,-99.9,-100.00,NE,55,2.0,2.0,-999,-99.99,,,-99.99,,2013-07-12 05:43:00,
2013-07-11 23:22:00,85.0,-99.9,-100.00,South,187,3.0,8.0,-999,-99.99,,,-99.99,,2013-07-12 06:22:00,
2013-07-11 23:42:00,85.0,-99.9,-100.00,WNW,286,2.0,2.0,-999,-99.99,,,-99.99,,2013-07-12 06:42:00,
2013-07-11 23:52:00,85.0,-99.9,-100.00,WNW,286,2.0,2.0,-999,-99.99,,,-99.99,,2013-07-12 06:52:00,